owner,sensor,date,latitude,longitude,vertical_datum,mass_concentration_of_oxygen_in_sea_water,qcFlag 
SCCF RECON,ioos:station:SCCF:16:1,2011-11-01T00:00:00Z,26.4345,-81.9647,2.634,6.86,1111122 
SCCF RECON,ioos:station:SCCF:16:1,2011-11-01T01:00:00Z,26.4345,-81.9647,2.555,6.72,1111122 
SCCF RECON,ioos:station:SCCF:16:1,2011-11-01T02:00:00Z,26.4345,-81.9647,2.481,6.67,1111122 
SCCF RECON,ioos:station:SCCF:16:1,2011-11-01T03:00:00Z,26.4345,-81.9647,2.474,6.75,1111122 
SCCF RECON,ioos:station:SCCF:16:1,2011-11-01T04:00:00Z,26.4345,-81.9647,2.495,6.6,1111122 
SCCF RECON,ioos:station:SCCF:16:1,2011-11-01T05:00:00Z,26.4345,-81.9647,2.549,6.63,1111122 
SCCF RECON,ioos:station:SCCF:16:1,2011-11-01T06:00:00Z,26.4345,-81.9647,2.62,6.66,1111122 
SCCF RECON,ioos:station:SCCF:16:1,2011-11-01T07:00:00Z,26.4345,-81.9647,2.721,6.77,1111122 
SCCF RECON,ioos:station:SCCF:16:1,2011-11-01T08:00:00Z,26.4345,-81.9647,2.718,6.79,1111122 
SCCF RECON,ioos:station:SCCF:16:1,2011-11-01T09:00:00Z,26.4345,-81.9647,2.664,6.61,1111122 
SCCF RECON,ioos:station:SCCF:16:1,2011-11-01T10:00:00Z,26.4345,-81.9647,2.557,6.53,1111122 
SCCF RECON,ioos:station:SCCF:16:1,2011-11-01T11:00:00Z,26.4345,-81.9647,2.465,6.48,1111122 
SCCF RECON,ioos:station:SCCF:16:1,2011-11-01T12:00:00Z,26.4345,-81.9647,2.321,6.46,1111122 
SCCF RECON,ioos:station:SCCF:16:1,2011-11-01T13:00:00Z,26.4345,-81.9647,2.18,6.5,1111122 
SCCF RECON,ioos:station:SCCF:16:1,2011-11-01T14:00:00Z,26.4345,-81.9647,2.042,6.43,1111122 
SCCF RECON,ioos:station:SCCF:16:1,2011-11-01T15:00:00Z,26.4345,-81.9647,1.996,6.46,1111122 
SCCF RECON,ioos:station:SCCF:16:1,2011-11-01T16:00:00Z,26.4345,-81.9647,1.999,6.62,1111122 
SCCF RECON,ioos:station:SCCF:16:1,2011-11-01T17:00:00Z,26.4345,-81.9647,2.059,6.41,1111122 
SCCF RECON,ioos:station:SCCF:16:1,2011-11-01T18:00:00Z,26.4345,-81.9647,2.123,6.43,1111122 
SCCF RECON,ioos:station:SCCF:16:1,2011-11-01T19:00:00Z,26.4345,-81.9647,2.305,6.65,1111122 
SCCF RECON,ioos:station:SCCF:16:1,2011-11-01T20:00:00Z,26.4345,-81.9647,2.462,6.38,1111122 
SCCF RECON,ioos:station:SCCF:16:1,2011-11-01T21:00:00Z,26.4345,-81.9647,2.55,6.48,1111122 
SCCF RECON,ioos:station:SCCF:16:1,2011-11-01T22:00:00Z,26.4345,-81.9647,2.632,6.5,1111122 
SCCF RECON,ioos:station:SCCF:16:1,2011-11-01T23:00:00Z,26.4345,-81.9647,2.668,6.63,1111122 
SCCF RECON,ioos:station:SCCF:16:1,2011-11-02T00:00:00Z,26.4345,-81.9647,2.63,6.74,1111122 
SCCF RECON,ioos:station:SCCF:16:1,2011-11-02T01:00:00Z,26.4345,-81.9647,2.546,6.65,1111122 
SCCF RECON,ioos:station:SCCF:16:1,2011-11-02T02:00:00Z,26.4345,-81.9647,2.487,6.54,1111122 
SCCF RECON,ioos:station:SCCF:16:1,2011-11-02T03:00:00Z,26.4345,-81.9647,2.433,6.52,1111122 
SCCF RECON,ioos:station:SCCF:16:1,2011-11-02T04:00:00Z,26.4345,-81.9647,2.402,6.5,1111122 
SCCF RECON,ioos:station:SCCF:16:1,2011-11-02T05:00:00Z,26.4345,-81.9647,2.379,6.45,1111122 
SCCF RECON,ioos:station:SCCF:16:1,2011-11-02T06:00:00Z,26.4345,-81.9647,2.385,6.42,1111122 
SCCF RECON,ioos:station:SCCF:16:1,2011-11-02T07:00:00Z,26.4345,-81.9647,2.455,6.53,1111122 
SCCF RECON,ioos:station:SCCF:16:1,2011-11-02T08:00:00Z,26.4345,-81.9647,2.552,6.58,1111122 
SCCF RECON,ioos:station:SCCF:16:1,2011-11-02T09:00:00Z,26.4345,-81.9647,2.64,6.62,1111122 
SCCF RECON,ioos:station:SCCF:16:1,2011-11-02T10:00:00Z,26.4345,-81.9647,2.646,6.59,1111122 
SCCF RECON,ioos:station:SCCF:16:1,2011-11-02T11:00:00Z,26.4345,-81.9647,2.613,6.58,1111122 
SCCF RECON,ioos:station:SCCF:16:1,2011-11-02T12:00:00Z,26.4345,-81.9647,2.523,6.51,1111122 
SCCF RECON,ioos:station:SCCF:16:1,2011-11-02T13:00:00Z,26.4345,-81.9647,2.439,6.55,1111122 
SCCF RECON,ioos:station:SCCF:16:1,2011-11-02T14:00:00Z,26.4345,-81.9647,2.33,6.55,1111122 
SCCF RECON,ioos:station:SCCF:16:1,2011-11-02T15:00:00Z,26.4345,-81.9647,2.239,6.85,1111122 
SCCF RECON,ioos:station:SCCF:16:1,2011-11-02T16:00:00Z,26.4345,-81.9647,2.165,7.23,1111122 
SCCF RECON,ioos:station:SCCF:16:1,2011-11-02T17:00:00Z,26.4345,-81.9647,2.127,7.08,1111122 
SCCF RECON,ioos:station:SCCF:16:1,2011-11-02T18:00:00Z,26.4345,-81.9647,2.173,6.55,1111122 
SCCF RECON,ioos:station:SCCF:16:1,2011-11-02T19:00:00Z,26.4345,-81.9647,2.288,6.91,1111122 
SCCF RECON,ioos:station:SCCF:16:1,2011-11-02T20:00:00Z,26.4345,-81.9647,2.389,7.11,1111122 
SCCF RECON,ioos:station:SCCF:16:1,2011-11-02T21:00:00Z,26.4345,-81.9647,2.493,7.05,1111122 
SCCF RECON,ioos:station:SCCF:16:1,2011-11-02T22:00:00Z,26.4345,-81.9647,2.577,7.11,1111122 
SCCF RECON,ioos:station:SCCF:16:1,2011-11-02T23:00:00Z,26.4345,-81.9647,2.625,6.95,1111122 
SCCF RECON,ioos:station:SCCF:16:1,2011-11-03T00:00:00Z,26.4345,-81.9647,2.645,7.07,1111122 
SCCF RECON,ioos:station:SCCF:16:1,2011-11-03T01:00:00Z,26.4345,-81.9647,2.637,7.04,1111122 
SCCF RECON,ioos:station:SCCF:16:1,2011-11-03T02:00:00Z,26.4345,-81.9647,2.597,7.07,1111122 
SCCF RECON,ioos:station:SCCF:16:1,2011-11-03T03:00:00Z,26.4345,-81.9647,2.565,7.1,1111122 
SCCF RECON,ioos:station:SCCF:16:1,2011-11-03T04:00:00Z,26.4345,-81.9647,2.524,7.05,1111122 
SCCF RECON,ioos:station:SCCF:16:1,2011-11-03T05:00:00Z,26.4345,-81.9647,2.457,6.93,1111122 
SCCF RECON,ioos:station:SCCF:16:1,2011-11-03T06:00:00Z,26.4345,-81.9647,2.42,6.92,1111122 
SCCF RECON,ioos:station:SCCF:16:1,2011-11-03T07:00:00Z,26.4345,-81.9647,2.449,6.68,1111122 
SCCF RECON,ioos:station:SCCF:16:1,2011-11-03T08:00:00Z,26.4345,-81.9647,2.555,6.69,1111122 
SCCF RECON,ioos:station:SCCF:16:1,2011-11-03T09:00:00Z,26.4345,-81.9647,2.705,6.5,1111122 
SCCF RECON,ioos:station:SCCF:16:1,2011-11-03T10:00:00Z,26.4345,-81.9647,2.77,6.86,1111122 
SCCF RECON,ioos:station:SCCF:16:1,2011-11-03T11:00:00Z,26.4345,-81.9647,2.788,6.81,1111122 
SCCF RECON,ioos:station:SCCF:16:1,2011-11-03T12:00:00Z,26.4345,-81.9647,2.766,6.88,1111122 
SCCF RECON,ioos:station:SCCF:16:1,2011-11-03T13:00:00Z,26.4345,-81.9647,2.709,6.28,1111122 
SCCF RECON,ioos:station:SCCF:16:1,2011-11-03T14:00:00Z,26.4345,-81.9647,2.615,6.52,1111122 
SCCF RECON,ioos:station:SCCF:16:1,2011-11-03T15:00:00Z,26.4345,-81.9647,2.54,6.95,1111122 
SCCF RECON,ioos:station:SCCF:16:1,2011-11-03T16:00:00Z,26.4345,-81.9647,2.457,7.04,1111122 
SCCF RECON,ioos:station:SCCF:16:1,2011-11-03T17:00:00Z,26.4345,-81.9647,2.347,6.93,1111122 
SCCF RECON,ioos:station:SCCF:16:1,2011-11-03T18:00:00Z,26.4345,-81.9647,2.283,6.97,1111122 
SCCF RECON,ioos:station:SCCF:16:1,2011-11-03T19:00:00Z,26.4345,-81.9647,2.296,7.13,1111122 
SCCF RECON,ioos:station:SCCF:16:1,2011-11-03T20:00:00Z,26.4345,-81.9647,2.357,7.17,1111122 
SCCF RECON,ioos:station:SCCF:16:1,2011-11-03T21:00:00Z,26.4345,-81.9647,2.485,6.88,1111122 
SCCF RECON,ioos:station:SCCF:16:1,2011-11-03T22:00:00Z,26.4345,-81.9647,2.57,7.19,1111122 
SCCF RECON,ioos:station:SCCF:16:1,2011-11-03T23:00:00Z,26.4345,-81.9647,2.622,6.74,1111122 
SCCF RECON,ioos:station:SCCF:16:1,2011-11-04T00:00:00Z,26.4345,-81.9647,2.696,6.8,1111122 
SCCF RECON,ioos:station:SCCF:16:1,2011-11-04T01:00:00Z,26.4345,-81.9647,2.739,6.79,1111122 
SCCF RECON,ioos:station:SCCF:16:1,2011-11-04T02:00:00Z,26.4345,-81.9647,2.764,6.64,1111122 
SCCF RECON,ioos:station:SCCF:16:1,2011-11-04T03:00:00Z,26.4345,-81.9647,2.74,6.48,1111122 
SCCF RECON,ioos:station:SCCF:16:1,2011-11-04T04:00:00Z,26.4345,-81.9647,2.635,6.34,1111122 
SCCF RECON,ioos:station:SCCF:16:1,2011-11-04T05:00:00Z,26.4345,-81.9647,2.532,6.35,1111122 
SCCF RECON,ioos:station:SCCF:16:1,2011-11-04T06:00:00Z,26.4345,-81.9647,2.453,6.26,1111122 
SCCF RECON,ioos:station:SCCF:16:1,2011-11-04T07:00:00Z,26.4345,-81.9647,2.425,6.23,1111122 
SCCF RECON,ioos:station:SCCF:16:1,2011-11-04T08:00:00Z,26.4345,-81.9647,2.455,6.29,1111122 
SCCF RECON,ioos:station:SCCF:16:1,2011-11-04T09:00:00Z,26.4345,-81.9647,2.53,6.19,1111122 
SCCF RECON,ioos:station:SCCF:16:1,2011-11-04T10:00:00Z,26.4345,-81.9647,2.619,6.13,1111122 
SCCF RECON,ioos:station:SCCF:16:1,2011-11-04T11:00:00Z,26.4345,-81.9647,2.705,6.19,1111122 
SCCF RECON,ioos:station:SCCF:16:1,2011-11-04T12:00:00Z,26.4345,-81.9647,2.76,6.16,1111122 
SCCF RECON,ioos:station:SCCF:16:1,2011-11-04T13:00:00Z,26.4345,-81.9647,2.803,6.41,1111122 
SCCF RECON,ioos:station:SCCF:16:1,2011-11-04T14:00:00Z,26.4345,-81.9647,2.828,6.45,1111122 
SCCF RECON,ioos:station:SCCF:16:1,2011-11-04T15:00:00Z,26.4345,-81.9647,2.755,6.43,1111122 
SCCF RECON,ioos:station:SCCF:16:1,2011-11-04T16:00:00Z,26.4345,-81.9647,2.62,6.23,1111122 
SCCF RECON,ioos:station:SCCF:16:1,2011-11-04T17:00:00Z,26.4345,-81.9647,2.466,6.5,1111122 
SCCF RECON,ioos:station:SCCF:16:1,2011-11-04T18:00:00Z,26.4345,-81.9647,2.381,6.27,1111122 
SCCF RECON,ioos:station:SCCF:16:1,2011-11-04T19:00:00Z,26.4345,-81.9647,2.356,6.29,1111122 
SCCF RECON,ioos:station:SCCF:16:1,2011-11-04T20:00:00Z,26.4345,-81.9647,2.32,6.72,1111122 
SCCF RECON,ioos:station:SCCF:16:1,2011-11-04T21:00:00Z,26.4345,-81.9647,2.37,6.92,1111122 
SCCF RECON,ioos:station:SCCF:16:1,2011-11-04T22:00:00Z,26.4345,-81.9647,2.447,6.91,1111122 
SCCF RECON,ioos:station:SCCF:16:1,2011-11-04T23:00:00Z,26.4345,-81.9647,2.534,6.99,1111122 
SCCF RECON,ioos:station:SCCF:16:1,2011-11-05T00:00:00Z,26.4345,-81.9647,2.617,7.01,1111122 
SCCF RECON,ioos:station:SCCF:16:1,2011-11-05T01:00:00Z,26.4345,-81.9647,2.698,7.23,1111122 
SCCF RECON,ioos:station:SCCF:16:1,2011-11-05T02:00:00Z,26.4345,-81.9647,2.7,7.23,1111122 
SCCF RECON,ioos:station:SCCF:16:1,2011-11-05T03:00:00Z,26.4345,-81.9647,2.673,6.98,1111122 
SCCF RECON,ioos:station:SCCF:16:1,2011-11-05T04:00:00Z,26.4345,-81.9647,2.538,6.95,1111122 
SCCF RECON,ioos:station:SCCF:16:1,2011-11-05T05:00:00Z,26.4345,-81.9647,2.375,7.0,1111122 
SCCF RECON,ioos:station:SCCF:16:1,2011-11-05T06:00:00Z,26.4345,-81.9647,2.249,7.21,1111122 
SCCF RECON,ioos:station:SCCF:16:1,2011-11-05T07:00:00Z,26.4345,-81.9647,2.18,6.97,1111122 
SCCF RECON,ioos:station:SCCF:16:1,2011-11-05T08:00:00Z,26.4345,-81.9647,2.179,6.89,1111122 
SCCF RECON,ioos:station:SCCF:16:1,2011-11-05T09:00:00Z,26.4345,-81.9647,2.202,6.82,1111122 
SCCF RECON,ioos:station:SCCF:16:1,2011-11-05T10:00:00Z,26.4345,-81.9647,2.326,6.68,1111122 
SCCF RECON,ioos:station:SCCF:16:1,2011-11-05T11:00:00Z,26.4345,-81.9647,2.455,6.79,1111122 
SCCF RECON,ioos:station:SCCF:16:1,2011-11-05T12:00:00Z,26.4345,-81.9647,2.512,6.31,1111122 
SCCF RECON,ioos:station:SCCF:16:1,2011-11-05T13:00:00Z,26.4345,-81.9647,2.54,6.33,1111122 
SCCF RECON,ioos:station:SCCF:16:1,2011-11-05T14:00:00Z,26.4345,-81.9647,2.584,6.35,1111122 
SCCF RECON,ioos:station:SCCF:16:1,2011-11-05T15:00:00Z,26.4345,-81.9647,2.591,6.4,1111122 
SCCF RECON,ioos:station:SCCF:16:1,2011-11-05T16:00:00Z,26.4345,-81.9647,2.538,6.44,1111122 
SCCF RECON,ioos:station:SCCF:16:1,2011-11-05T17:00:00Z,26.4345,-81.9647,2.473,6.38,1111122 
SCCF RECON,ioos:station:SCCF:16:1,2011-11-05T18:00:00Z,26.4345,-81.9647,2.431,6.78,1111122 
SCCF RECON,ioos:station:SCCF:16:1,2011-11-05T19:00:00Z,26.4345,-81.9647,2.392,6.87,1111122 
SCCF RECON,ioos:station:SCCF:16:1,2011-11-05T20:00:00Z,26.4345,-81.9647,2.369,7.27,1111122 
SCCF RECON,ioos:station:SCCF:16:1,2011-11-05T21:00:00Z,26.4345,-81.9647,2.407,7.4,1111122 
SCCF RECON,ioos:station:SCCF:16:1,2011-11-05T22:00:00Z,26.4345,-81.9647,2.49,7.47,1111122 
SCCF RECON,ioos:station:SCCF:16:1,2011-11-05T23:00:00Z,26.4345,-81.9647,2.556,7.37,1111122 
SCCF RECON,ioos:station:SCCF:16:1,2011-11-06T00:00:00Z,26.4345,-81.9647,2.634,7.16,1111122 
SCCF RECON,ioos:station:SCCF:16:1,2011-11-06T01:00:00Z,26.4345,-81.9647,2.669,7.03,1111122 
SCCF RECON,ioos:station:SCCF:16:1,2011-11-06T02:00:00Z,26.4345,-81.9647,2.689,6.89,1111122 
SCCF RECON,ioos:station:SCCF:16:1,2011-11-06T03:00:00Z,26.4345,-81.9647,2.721,6.75,1111122 
SCCF RECON,ioos:station:SCCF:16:1,2011-11-06T04:00:00Z,26.4345,-81.9647,2.689,6.69,1111122 
SCCF RECON,ioos:station:SCCF:16:1,2011-11-06T05:00:00Z,26.4345,-81.9647,2.598,6.56,1111122 
SCCF RECON,ioos:station:SCCF:16:1,2011-11-06T06:00:00Z,26.4345,-81.9647,2.422,6.64,1111122 
SCCF RECON,ioos:station:SCCF:16:1,2011-11-06T07:00:00Z,26.4345,-81.9647,2.284,6.6,1111122 
SCCF RECON,ioos:station:SCCF:16:1,2011-11-06T08:00:00Z,26.4345,-81.9647,2.207,6.87,1111122 
SCCF RECON,ioos:station:SCCF:16:1,2011-11-06T09:00:00Z,26.4345,-81.9647,2.207,6.76,1111122 
SCCF RECON,ioos:station:SCCF:16:1,2011-11-06T10:00:00Z,26.4345,-81.9647,2.333,6.52,1111122 
SCCF RECON,ioos:station:SCCF:16:1,2011-11-06T11:00:00Z,26.4345,-81.9647,2.492,6.69,1111122 
SCCF RECON,ioos:station:SCCF:16:1,2011-11-06T12:00:00Z,26.4345,-81.9647,2.592,6.53,1111122 
SCCF RECON,ioos:station:SCCF:16:1,2011-11-06T13:00:00Z,26.4345,-81.9647,2.639,6.42,1111122 
SCCF RECON,ioos:station:SCCF:16:1,2011-11-06T14:00:00Z,26.4345,-81.9647,2.709,6.35,1111122 
SCCF RECON,ioos:station:SCCF:16:1,2011-11-06T15:00:00Z,26.4345,-81.9647,2.753,6.39,1111122 
SCCF RECON,ioos:station:SCCF:16:1,2011-11-06T16:00:00Z,26.4345,-81.9647,2.721,6.39,1111122 
SCCF RECON,ioos:station:SCCF:16:1,2011-11-06T17:00:00Z,26.4345,-81.9647,2.627,6.76,1111122 
SCCF RECON,ioos:station:SCCF:16:1,2011-11-06T18:00:00Z,26.4345,-81.9647,2.532,6.91,1111122 
SCCF RECON,ioos:station:SCCF:16:1,2011-11-06T19:00:00Z,26.4345,-81.9647,2.47,7.01,1111122 
SCCF RECON,ioos:station:SCCF:16:1,2011-11-06T20:00:00Z,26.4345,-81.9647,2.413,7.18,1111122 
SCCF RECON,ioos:station:SCCF:16:1,2011-11-06T21:00:00Z,26.4345,-81.9647,2.422,7.34,1111122 
SCCF RECON,ioos:station:SCCF:16:1,2011-11-06T22:00:00Z,26.4345,-81.9647,2.486,7.24,1111122 
SCCF RECON,ioos:station:SCCF:16:1,2011-11-06T23:00:00Z,26.4345,-81.9647,2.606,7.15,1111122 
SCCF RECON,ioos:station:SCCF:16:1,2011-11-07T00:00:00Z,26.4345,-81.9647,2.676,7.11,1111122 
SCCF RECON,ioos:station:SCCF:16:1,2011-11-07T01:00:00Z,26.4345,-81.9647,2.723,7.04,1111122 
SCCF RECON,ioos:station:SCCF:16:1,2011-11-07T02:00:00Z,26.4345,-81.9647,2.737,6.86,1111122 
SCCF RECON,ioos:station:SCCF:16:1,2011-11-07T03:00:00Z,26.4345,-81.9647,2.763,6.78,1111122 
SCCF RECON,ioos:station:SCCF:16:1,2011-11-07T04:00:00Z,26.4345,-81.9647,2.713,6.83,1111122 
SCCF RECON,ioos:station:SCCF:16:1,2011-11-07T05:00:00Z,26.4345,-81.9647,2.619,6.75,1111122 
SCCF RECON,ioos:station:SCCF:16:1,2011-11-07T06:00:00Z,26.4345,-81.9647,2.49,6.7,1111122 
SCCF RECON,ioos:station:SCCF:16:1,2011-11-07T07:00:00Z,26.4345,-81.9647,2.281,6.62,1111122 
SCCF RECON,ioos:station:SCCF:16:1,2011-11-07T08:00:00Z,26.4345,-81.9647,2.18,6.71,1111122 
SCCF RECON,ioos:station:SCCF:16:1,2011-11-07T09:00:00Z,26.4345,-81.9647,2.094,6.61,1111122 
SCCF RECON,ioos:station:SCCF:16:1,2011-11-07T10:00:00Z,26.4345,-81.9647,2.155,6.56,1111122 
SCCF RECON,ioos:station:SCCF:16:1,2011-11-07T11:00:00Z,26.4345,-81.9647,2.321,6.4,1111122 
SCCF RECON,ioos:station:SCCF:16:1,2011-11-07T12:00:00Z,26.4345,-81.9647,2.487,6.55,1111122 
SCCF RECON,ioos:station:SCCF:16:1,2011-11-07T13:00:00Z,26.4345,-81.9647,2.619,6.62,1111122 
SCCF RECON,ioos:station:SCCF:16:1,2011-11-07T14:00:00Z,26.4345,-81.9647,2.707,6.54,1111122 
SCCF RECON,ioos:station:SCCF:16:1,2011-11-07T15:00:00Z,26.4345,-81.9647,2.788,6.33,1111122 
SCCF RECON,ioos:station:SCCF:16:1,2011-11-07T16:00:00Z,26.4345,-81.9647,2.789,6.21,1111122 
SCCF RECON,ioos:station:SCCF:16:1,2011-11-07T17:00:00Z,26.4345,-81.9647,2.737,6.52,1111122 
SCCF RECON,ioos:station:SCCF:16:1,2011-11-07T18:00:00Z,26.4345,-81.9647,2.636,6.69,1111122 
SCCF RECON,ioos:station:SCCF:16:1,2011-11-07T19:00:00Z,26.4345,-81.9647,2.562,6.82,1111122 
SCCF RECON,ioos:station:SCCF:16:1,2011-11-07T20:00:00Z,26.4345,-81.9647,2.527,6.84,1111122 
SCCF RECON,ioos:station:SCCF:16:1,2011-11-07T21:00:00Z,26.4345,-81.9647,2.538,6.99,1111122 
SCCF RECON,ioos:station:SCCF:16:1,2011-11-07T22:00:00Z,26.4345,-81.9647,2.587,6.97,1111122 
SCCF RECON,ioos:station:SCCF:16:1,2011-11-07T23:00:00Z,26.4345,-81.9647,2.667,7.02,1111122 
SCCF RECON,ioos:station:SCCF:16:1,2011-11-08T00:00:00Z,26.4345,-81.9647,2.783,6.86,1111122 
SCCF RECON,ioos:station:SCCF:16:1,2011-11-08T01:00:00Z,26.4345,-81.9647,2.845,6.69,1111122 
SCCF RECON,ioos:station:SCCF:16:1,2011-11-08T02:00:00Z,26.4345,-81.9647,2.892,7.11,1111122 
SCCF RECON,ioos:station:SCCF:16:1,2011-11-08T03:00:00Z,26.4345,-81.9647,2.906,7.18,1111122 
SCCF RECON,ioos:station:SCCF:16:1,2011-11-08T04:00:00Z,26.4345,-81.9647,2.889,7.18,1111122 
SCCF RECON,ioos:station:SCCF:16:1,2011-11-08T05:00:00Z,26.4345,-81.9647,2.787,7.11,1111122 
SCCF RECON,ioos:station:SCCF:16:1,2011-11-08T06:00:00Z,26.4345,-81.9647,2.622,7.01,1111122 
SCCF RECON,ioos:station:SCCF:16:1,2011-11-08T07:00:00Z,26.4345,-81.9647,2.423,6.58,1111122 
SCCF RECON,ioos:station:SCCF:16:1,2011-11-08T08:00:00Z,26.4345,-81.9647,2.291,6.72,1111122 
SCCF RECON,ioos:station:SCCF:16:1,2011-11-08T09:00:00Z,26.4345,-81.9647,2.163,6.64,1111122 
SCCF RECON,ioos:station:SCCF:16:1,2011-11-08T10:00:00Z,26.4345,-81.9647,2.157,6.52,1111122 
SCCF RECON,ioos:station:SCCF:16:1,2011-11-08T11:00:00Z,26.4345,-81.9647,2.272,6.65,1111122 
SCCF RECON,ioos:station:SCCF:16:1,2011-11-08T12:00:00Z,26.4345,-81.9647,2.44,6.63,1111122 
SCCF RECON,ioos:station:SCCF:16:1,2011-11-08T13:00:00Z,26.4345,-81.9647,2.634,6.79,1111122 
SCCF RECON,ioos:station:SCCF:16:1,2011-11-08T14:00:00Z,26.4345,-81.9647,2.72,6.67,1111122 
SCCF RECON,ioos:station:SCCF:16:1,2011-11-08T15:00:00Z,26.4345,-81.9647,2.836,6.4,1111122 
SCCF RECON,ioos:station:SCCF:16:1,2011-11-08T16:00:00Z,26.4345,-81.9647,2.899,6.3,1111122 
SCCF RECON,ioos:station:SCCF:16:1,2011-11-08T17:00:00Z,26.4345,-81.9647,2.866,6.34,1111122 
SCCF RECON,ioos:station:SCCF:16:1,2011-11-08T18:00:00Z,26.4345,-81.9647,2.795,6.43,1111122 
SCCF RECON,ioos:station:SCCF:16:1,2011-11-08T19:00:00Z,26.4345,-81.9647,2.732,6.27,1111122 
SCCF RECON,ioos:station:SCCF:16:1,2011-11-08T20:00:00Z,26.4345,-81.9647,2.647,6.64,1111122 
SCCF RECON,ioos:station:SCCF:16:1,2011-11-08T21:00:00Z,26.4345,-81.9647,2.587,7.37,1111122 
SCCF RECON,ioos:station:SCCF:16:1,2011-11-08T22:00:00Z,26.4345,-81.9647,2.593,7.2,1111122 
SCCF RECON,ioos:station:SCCF:16:1,2011-11-08T23:00:00Z,26.4345,-81.9647,2.613,6.74,1111122 
SCCF RECON,ioos:station:SCCF:16:1,2011-11-09T00:00:00Z,26.4345,-81.9647,2.724,7.1,1111122 
SCCF RECON,ioos:station:SCCF:16:1,2011-11-09T01:00:00Z,26.4345,-81.9647,2.852,7.16,1111122 
SCCF RECON,ioos:station:SCCF:16:1,2011-11-09T02:00:00Z,26.4345,-81.9647,2.934,7.36,1111122 
SCCF RECON,ioos:station:SCCF:16:1,2011-11-09T03:00:00Z,26.4345,-81.9647,2.979,7.51,1111122 
SCCF RECON,ioos:station:SCCF:16:1,2011-11-09T04:00:00Z,26.4345,-81.9647,3.001,6.95,1111122 
SCCF RECON,ioos:station:SCCF:16:1,2011-11-09T05:00:00Z,26.4345,-81.9647,2.922,7.2,1111122 
SCCF RECON,ioos:station:SCCF:16:1,2011-11-09T06:00:00Z,26.4345,-81.9647,2.724,6.92,1111122 
SCCF RECON,ioos:station:SCCF:16:1,2011-11-09T07:00:00Z,26.4345,-81.9647,2.518,6.77,1111122 
SCCF RECON,ioos:station:SCCF:16:1,2011-11-09T08:00:00Z,26.4345,-81.9647,2.364,6.39,1111122 
SCCF RECON,ioos:station:SCCF:16:1,2011-11-09T09:00:00Z,26.4345,-81.9647,2.24,6.64,1111122 
SCCF RECON,ioos:station:SCCF:16:1,2011-11-09T10:00:00Z,26.4345,-81.9647,2.137,6.84,1111122 
SCCF RECON,ioos:station:SCCF:16:1,2011-11-09T11:00:00Z,26.4345,-81.9647,2.173,6.83,1111122 
SCCF RECON,ioos:station:SCCF:16:1,2011-11-09T12:00:00Z,26.4345,-81.9647,2.397,6.75,1111122 
SCCF RECON,ioos:station:SCCF:16:1,2011-11-09T13:00:00Z,26.4345,-81.9647,2.574,6.71,1111122 
SCCF RECON,ioos:station:SCCF:16:1,2011-11-09T14:00:00Z,26.4345,-81.9647,2.735,6.85,1111122 
SCCF RECON,ioos:station:SCCF:16:1,2011-11-09T15:00:00Z,26.4345,-81.9647,2.818,6.86,1111122 
SCCF RECON,ioos:station:SCCF:16:1,2011-11-09T16:00:00Z,26.4345,-81.9647,2.899,6.92,1111122 
SCCF RECON,ioos:station:SCCF:16:1,2011-11-09T17:00:00Z,26.4345,-81.9647,2.92,6.87,1111122 
SCCF RECON,ioos:station:SCCF:16:1,2011-11-09T18:00:00Z,26.4345,-81.9647,2.864,6.76,1111122 
SCCF RECON,ioos:station:SCCF:16:1,2011-11-09T19:00:00Z,26.4345,-81.9647,2.765,6.64,1111122 
SCCF RECON,ioos:station:SCCF:16:1,2011-11-09T20:00:00Z,26.4345,-81.9647,2.68,6.98,1111122 
SCCF RECON,ioos:station:SCCF:16:1,2011-11-09T21:00:00Z,26.4345,-81.9647,2.667,7.2,1111122 
SCCF RECON,ioos:station:SCCF:16:1,2011-11-09T22:00:00Z,26.4345,-81.9647,2.604,7.31,1111122 
SCCF RECON,ioos:station:SCCF:16:1,2011-11-09T23:00:00Z,26.4345,-81.9647,2.594,7.33,1111122 
SCCF RECON,ioos:station:SCCF:16:1,2011-11-10T00:00:00Z,26.4345,-81.9647,2.68,7.27,1111122 
SCCF RECON,ioos:station:SCCF:16:1,2011-11-10T01:00:00Z,26.4345,-81.9647,2.812,7.14,1111122 
SCCF RECON,ioos:station:SCCF:16:1,2011-11-10T02:00:00Z,26.4345,-81.9647,2.949,7.4,1111122 
SCCF RECON,ioos:station:SCCF:16:1,2011-11-10T03:00:00Z,26.4345,-81.9647,3.02,7.26,1111122 
SCCF RECON,ioos:station:SCCF:16:1,2011-11-10T04:00:00Z,26.4345,-81.9647,3.054,7.02,1111122 
SCCF RECON,ioos:station:SCCF:16:1,2011-11-10T05:00:00Z,26.4345,-81.9647,3.006,6.74,1111122 
SCCF RECON,ioos:station:SCCF:16:1,2011-11-10T06:00:00Z,26.4345,-81.9647,2.858,6.25,1111122 
SCCF RECON,ioos:station:SCCF:16:1,2011-11-10T07:00:00Z,26.4345,-81.9647,2.67,6.45,1111122 
SCCF RECON,ioos:station:SCCF:16:1,2011-11-10T08:00:00Z,26.4345,-81.9647,2.446,6.69,1111122 
SCCF RECON,ioos:station:SCCF:16:1,2011-11-10T09:00:00Z,26.4345,-81.9647,2.278,6.63,1111122 
SCCF RECON,ioos:station:SCCF:16:1,2011-11-10T10:00:00Z,26.4345,-81.9647,2.125,6.57,1111122 
SCCF RECON,ioos:station:SCCF:16:1,2011-11-10T11:00:00Z,26.4345,-81.9647,2.091,6.58,1111122 
SCCF RECON,ioos:station:SCCF:16:1,2011-11-10T12:00:00Z,26.4345,-81.9647,2.176,6.54,1111122 
SCCF RECON,ioos:station:SCCF:16:1,2011-11-10T13:00:00Z,26.4345,-81.9647,2.384,6.42,1111122 
SCCF RECON,ioos:station:SCCF:16:1,2011-11-10T14:00:00Z,26.4345,-81.9647,2.594,6.47,1111122 
SCCF RECON,ioos:station:SCCF:16:1,2011-11-10T15:00:00Z,26.4345,-81.9647,2.732,5.88,1111122 
SCCF RECON,ioos:station:SCCF:16:1,2011-11-10T16:00:00Z,26.4345,-81.9647,2.848,5.99,1111122 
SCCF RECON,ioos:station:SCCF:16:1,2011-11-10T17:00:00Z,26.4345,-81.9647,2.881,6.09,1111122 
SCCF RECON,ioos:station:SCCF:16:1,2011-11-10T18:00:00Z,26.4345,-81.9647,2.88,6.18,1111122 
SCCF RECON,ioos:station:SCCF:16:1,2011-11-10T19:00:00Z,26.4345,-81.9647,2.83,6.04,1111122 
SCCF RECON,ioos:station:SCCF:16:1,2011-11-10T20:00:00Z,26.4345,-81.9647,2.729,5.89,1111122 
SCCF RECON,ioos:station:SCCF:16:1,2011-11-10T21:00:00Z,26.4345,-81.9647,2.645,6.53,1111122 
SCCF RECON,ioos:station:SCCF:16:1,2011-11-10T22:00:00Z,26.4345,-81.9647,2.61,6.6,1111122 
SCCF RECON,ioos:station:SCCF:16:1,2011-11-10T23:00:00Z,26.4345,-81.9647,2.588,6.68,1111122 
SCCF RECON,ioos:station:SCCF:16:1,2011-11-11T00:00:00Z,26.4345,-81.9647,2.636,7.42,1111122 
SCCF RECON,ioos:station:SCCF:16:1,2011-11-11T01:00:00Z,26.4345,-81.9647,2.746,7.18,1111122 
SCCF RECON,ioos:station:SCCF:16:1,2011-11-11T02:00:00Z,26.4345,-81.9647,2.855,7.27,1111122 
SCCF RECON,ioos:station:SCCF:16:1,2011-11-11T03:00:00Z,26.4345,-81.9647,2.979,7.23,1111122 
SCCF RECON,ioos:station:SCCF:16:1,2011-11-11T04:00:00Z,26.4345,-81.9647,2.978,7.14,1111122 
SCCF RECON,ioos:station:SCCF:16:1,2011-11-11T05:00:00Z,26.4345,-81.9647,3.021,6.82,1111122 
SCCF RECON,ioos:station:SCCF:16:1,2011-11-11T06:00:00Z,26.4345,-81.9647,2.9,6.52,1111122 
SCCF RECON,ioos:station:SCCF:16:1,2011-11-11T07:00:00Z,26.4345,-81.9647,2.645,6.65,1111122 
SCCF RECON,ioos:station:SCCF:16:1,2011-11-11T08:00:00Z,26.4345,-81.9647,2.491,6.69,1111122 
SCCF RECON,ioos:station:SCCF:16:1,2011-11-11T09:00:00Z,26.4345,-81.9647,2.254,6.44,1111122 
SCCF RECON,ioos:station:SCCF:16:1,2011-11-11T10:00:00Z,26.4345,-81.9647,2.011,6.47,1111122 
SCCF RECON,ioos:station:SCCF:16:1,2011-11-11T11:00:00Z,26.4345,-81.9647,1.82,6.66,1111122 
SCCF RECON,ioos:station:SCCF:16:1,2011-11-11T12:00:00Z,26.4345,-81.9647,1.819,6.7,1111122 
SCCF RECON,ioos:station:SCCF:16:1,2011-11-11T13:00:00Z,26.4345,-81.9647,1.991,6.67,1111122 
SCCF RECON,ioos:station:SCCF:16:1,2011-11-11T14:00:00Z,26.4345,-81.9647,2.206,6.86,1111122 
SCCF RECON,ioos:station:SCCF:16:1,2011-11-11T15:00:00Z,26.4345,-81.9647,2.366,6.82,1111122 
SCCF RECON,ioos:station:SCCF:16:1,2011-11-11T16:00:00Z,26.4345,-81.9647,2.489,6.77,1111122 
SCCF RECON,ioos:station:SCCF:16:1,2011-11-11T17:00:00Z,26.4345,-81.9647,2.626,7.06,1111122 
SCCF RECON,ioos:station:SCCF:16:1,2011-11-11T18:00:00Z,26.4345,-81.9647,2.668,7.24,1111122 
SCCF RECON,ioos:station:SCCF:16:1,2011-11-11T19:00:00Z,26.4345,-81.9647,2.647,6.39,1111122 